Location: Bodham
(52.9000°N, 1.1667°E)
Time: 14:30:10
(UTC+00:00)

Cosmos 2112 Rocket - Pass Details

Date: 20 October 2025
Orbit: 753 x 782 km, 74.0° (Epoch: 13 November)

Event Time Altitude Azimuth Distance (km) Brightness Sun altitude
Rises 03:24:36 0° 336° (NNW) 3,251 7.2 -28.3°
Reaches altitude 10° 03:27:22 10° 349° (N) 2,315 6.6 -28.0°
Maximum altitude 03:31:48 27° 47° (NE) 1,445 6.0 -27.3°
Drops below altitude 10° 03:36:11 10° 105° (ESE) 2,290 7.2 -26.7°
Sets 03:38:53 0° 117° (ESE) 3,207 7.8 -26.3°
